Time,TemperatureF,DewpointF,PressureIn,WindDirection,WindDirectionDegrees,WindSpeedMPH,WindSpeedGustMPH,Humidity,HourlyPrecipIn,Conditions,Clouds,dailyrainin,SoftwareType,DateUTC
2014-07-25 00:00:00,62.4,48.8,30.00,NW,318,0.0,0.0,61,0.00,,,0.00,VWS V12.08,2014-07-25 04:00:00,
2014-07-25 00:03:00,62.4,48.8,30.00,NW,318,0.0,0.0,61,0.00,,,0.00,VWS V12.08,2014-07-25 04:03:00,
2014-07-25 00:20:00,62.2,49.1,30.00,NW,318,0.0,0.0,62,0.00,,,0.00,VWS V12.08,2014-07-25 04:20:00,
2014-07-25 00:23:00,62.2,49.1,30.00,NW,318,0.0,0.0,62,0.00,,,0.00,VWS V12.08,2014-07-25 04:23:00,
2014-07-25 00:28:00,62.1,48.9,30.00,NW,318,0.0,0.0,62,0.00,,,0.00,VWS V12.08,2014-07-25 04:28:00,
2014-07-25 00:33:00,62.2,49.1,29.97,NW,318,0.0,0.0,62,0.00,,,0.00,VWS V12.08,2014-07-25 04:33:00,
2014-07-25 00:38:00,62.1,48.9,29.97,NW,318,0.0,0.0,62,0.00,,,0.00,VWS V12.08,2014-07-25 04:38:00,
2014-07-25 00:48:00,61.9,48.3,29.97,NW,318,0.0,0.0,61,0.00,,,0.00,VWS V12.08,2014-07-25 04:48:00,
2014-07-25 00:53:00,61.7,48.6,29.97,NW,318,0.0,0.0,62,0.00,,,0.00,VWS V12.08,2014-07-25 04:53:00,
2014-07-25 01:00:00,61.9,48.7,29.97,NW,318,0.0,0.0,62,0.00,,,0.00,VWS V12.08,2014-07-25 05:00:00,
2014-07-25 01:03:00,61.9,48.7,29.97,NW,318,0.0,0.0,62,0.00,,,0.00,VWS V12.08,2014-07-25 05:03:00,
2014-07-25 01:16:00,62.1,48.9,29.97,NW,318,0.0,0.0,62,0.00,,,0.00,VWS V12.08,2014-07-25 05:16:00,
2014-07-25 01:23:00,62.1,48.9,29.97,NW,318,0.0,0.0,62,0.00,,,0.00,VWS V12.08,2014-07-25 05:23:00,
2014-07-25 01:33:00,62.4,50.1,29.97,NW,318,0.0,0.0,64,0.00,,,0.00,VWS V12.08,2014-07-25 05:33:00,
2014-07-25 01:42:00,63.0,50.6,29.97,NW,318,0.0,0.0,64,0.00,,,0.00,VWS V12.08,2014-07-25 05:42:00,
2014-07-25 01:47:00,63.1,50.8,29.97,NW,318,0.0,0.0,64,0.00,,,0.00,VWS V12.08,2014-07-25 05:47:00,
2014-07-25 01:52:00,63.0,50.6,29.97,NW,318,0.0,0.0,64,0.00,,,0.00,VWS V12.08,2014-07-25 05:52:00,
2014-07-25 02:00:00,63.5,52.0,29.97,NW,318,0.0,0.0,66,0.00,,,0.00,VWS V12.08,2014-07-25 06:00:00,
2014-07-25 02:02:00,63.3,51.4,29.97,NW,318,0.0,0.0,65,0.00,,,0.00,VWS V12.08,2014-07-25 06:02:00,
2014-07-25 02:15:00,63.9,52.3,29.97,NW,318,0.0,0.0,66,0.00,,,0.00,VWS V12.08,2014-07-25 06:15:00,
2014-07-25 02:22:00,64.2,53.0,29.97,NW,318,0.0,0.0,67,0.00,,,0.00,VWS V12.08,2014-07-25 06:22:00,
2014-07-25 02:32:00,64.6,53.4,29.97,NW,315,0.0,0.0,67,0.00,,,0.00,VWS V12.08,2014-07-25 06:32:00,
2014-07-25 02:37:00,64.8,54.0,29.97,NW,315,0.0,0.0,68,0.00,,,0.00,VWS V12.08,2014-07-25 06:37:00,
2014-07-25 02:47:00,64.9,54.5,29.97,NW,316,0.0,0.0,69,0.00,,,0.00,VWS V12.08,2014-07-25 06:47:00,
2014-07-25 02:52:00,64.9,54.5,29.97,NW,316,0.0,0.0,69,0.00,,,0.00,VWS V12.08,2014-07-25 06:52:00,
2014-07-25 03:00:00,65.1,54.7,30.00,NW,315,0.0,0.0,69,0.00,,,0.00,VWS V12.08,2014-07-25 07:00:00,
2014-07-25 03:02:00,64.9,54.5,30.00,NW,315,0.0,0.0,69,0.00,,,0.00,VWS V12.08,2014-07-25 07:02:00,
2014-07-25 03:17:00,64.9,54.5,30.00,NW,316,0.0,0.0,69,0.00,,,0.00,VWS V12.08,2014-07-25 07:17:00,
2014-07-25 03:22:00,64.9,54.5,30.00,NW,316,0.0,0.0,69,0.00,,,0.00,VWS V12.08,2014-07-25 07:22:00,
2014-07-25 03:32:00,64.9,54.1,30.00,NW,315,0.0,0.0,68,0.00,,,0.00,VWS V12.08,2014-07-25 07:32:00,
2014-07-25 03:38:00,64.8,54.0,30.00,NW,316,0.0,0.0,68,0.00,,,0.00,VWS V12.08,2014-07-25 07:38:00,
2014-07-25 03:47:00,64.8,54.0,30.00,NW,315,0.0,0.0,68,0.00,,,0.00,VWS V12.08,2014-07-25 07:47:00,
2014-07-25 03:52:00,64.8,54.0,30.00,NW,316,0.0,0.0,68,0.00,,,0.00,VWS V12.08,2014-07-25 07:52:00,
2014-07-25 04:00:00,64.6,53.4,30.00,NW,316,0.0,0.0,67,0.00,,,0.00,VWS V12.08,2014-07-25 08:00:00,
2014-07-25 04:02:00,64.6,53.4,30.00,NW,315,0.0,0.0,67,0.00,,,0.00,VWS V12.08,2014-07-25 08:02:00,
2014-07-25 04:15:00,64.6,53.4,30.00,NW,316,0.0,0.0,67,0.00,,,0.00,VWS V12.08,2014-07-25 08:15:00,
2014-07-25 04:23:00,64.6,53.4,30.00,NW,316,0.0,0.0,67,0.00,,,0.00,VWS V12.08,2014-07-25 08:23:00,
2014-07-25 04:32:00,64.6,53.4,30.00,NW,316,0.0,0.0,67,0.00,,,0.00,VWS V12.08,2014-07-25 08:32:00,
2014-07-25 04:38:00,64.6,53.4,30.00,NW,316,0.0,0.0,67,0.00,,,0.00,VWS V12.08,2014-07-25 08:38:00,
2014-07-25 04:48:00,64.8,53.2,30.00,NW,316,0.0,0.0,66,0.00,,,0.00,VWS V12.08,2014-07-25 08:48:00,
2014-07-25 04:53:00,64.8,53.2,30.00,NW,315,0.0,0.0,66,0.00,,,0.00,VWS V12.08,2014-07-25 08:53:00,
2014-07-25 05:00:00,64.8,52.3,30.00,NW,315,0.0,0.0,64,0.00,,,0.00,VWS V12.08,2014-07-25 09:00:00,
2014-07-25 05:03:00,64.8,52.7,30.00,NW,315,0.0,0.0,65,0.00,,,0.00,VWS V12.08,2014-07-25 09:03:00,
2014-07-25 05:15:00,64.6,51.7,30.00,NW,316,0.0,0.0,63,0.00,,,0.00,VWS V12.08,2014-07-25 09:15:00,
2014-07-25 05:23:00,64.6,51.3,30.00,NW,316,0.0,0.0,62,0.00,,,0.00,VWS V12.08,2014-07-25 09:23:00,
2014-07-25 05:33:00,64.4,48.8,30.00,NW,316,0.0,0.0,57,0.00,,,0.00,VWS V12.08,2014-07-25 09:33:00,
2014-07-25 05:38:00,64.4,45.9,30.00,NW,315,0.0,0.0,51,0.00,,,0.00,VWS V12.08,2014-07-25 09:38:00,
2014-07-25 05:48:00,64.2,44.7,30.00,West,260,0.0,0.0,49,0.00,,,0.00,VWS V12.08,2014-07-25 09:48:00,
2014-07-25 05:53:00,64.2,44.1,30.00,West,260,0.0,0.0,48,0.00,,,0.00,VWS V12.08,2014-07-25 09:53:00,
2014-07-25 06:00:00,64.2,42.5,30.03,NNW,328,0.0,0.0,45,0.00,,,0.00,VWS V12.08,2014-07-25 10:00:00,
2014-07-25 06:03:00,64.2,42.5,30.03,NNW,331,0.0,0.0,45,0.00,,,0.00,VWS V12.08,2014-07-25 10:03:00,
2014-07-25 06:18:00,64.2,41.9,30.03,NNW,327,0.0,0.0,44,0.00,,,0.00,VWS V12.08,2014-07-25 10:18:00,
2014-07-25 06:23:00,64.2,41.9,30.03,NNW,327,0.0,0.0,44,0.00,,,0.00,VWS V12.08,2014-07-25 10:23:00,
2014-07-25 06:33:00,64.2,42.5,30.03,NNW,337,0.0,0.0,45,0.00,,,0.00,VWS V12.08,2014-07-25 10:33:00,
2014-07-25 06:38:00,64.4,42.6,30.03,NNW,337,0.0,0.0,45,0.00,,,0.00,VWS V12.08,2014-07-25 10:38:00,
2014-07-25 06:48:00,64.4,43.2,30.03,NNW,335,0.0,0.0,46,0.00,,,0.00,VWS V12.08,2014-07-25 10:48:00,
2014-07-25 06:53:00,64.4,43.2,30.03,NNW,335,0.0,0.0,46,0.00,,,0.00,VWS V12.08,2014-07-25 10:53:00,
2014-07-25 07:00:00,64.4,43.2,30.03,NNW,335,0.0,0.0,46,0.00,,,0.00,VWS V12.08,2014-07-25 11:00:00,
2014-07-25 07:03:00,64.4,43.2,30.03,NNW,335,0.0,0.0,46,0.00,,,0.00,VWS V12.08,2014-07-25 11:03:00,
2014-07-25 07:19:00,64.4,43.8,30.03,South,181,0.0,0.0,47,0.00,,,0.00,VWS V12.08,2014-07-25 11:19:00,
2014-07-25 07:28:00,64.4,44.3,30.03,North,350,0.0,0.0,48,0.00,,,0.00,VWS V12.08,2014-07-25 11:28:00,
2014-07-25 07:33:00,64.4,44.8,30.03,NNW,331,0.0,0.0,49,0.00,,,0.00,VWS V12.08,2014-07-25 11:33:00,
2014-07-25 07:38:00,64.2,44.7,30.03,NNW,331,0.0,0.0,49,0.00,,,0.00,VWS V12.08,2014-07-25 11:38:00,
2014-07-25 07:48:00,64.2,45.2,30.03,NNW,331,0.0,0.0,50,0.00,,,0.00,VWS V12.08,2014-07-25 11:48:00,
2014-07-25 07:53:00,64.4,45.9,30.03,NNW,331,0.0,0.0,51,0.00,,,0.00,VWS V12.08,2014-07-25 11:53:00,
2014-07-25 08:00:00,65.7,47.1,30.03,NW,320,0.0,0.0,51,0.00,,,0.00,VWS V12.08,2014-07-25 12:00:00,
2014-07-25 08:03:00,65.1,47.1,30.03,NNW,331,0.0,0.0,52,0.00,,,0.00,VWS V12.08,2014-07-25 12:03:00,
2014-07-25 08:16:00,66.2,45.4,30.03,NW,311,0.0,0.0,47,0.00,,,0.00,VWS V12.08,2014-07-25 12:16:00,
2014-07-25 08:23:00,66.7,45.3,30.03,NW,311,0.0,0.0,46,0.00,,,0.00,VWS V12.08,2014-07-25 12:23:00,
2014-07-25 08:33:00,67.5,45.4,30.03,NW,311,0.0,0.0,45,0.00,,,0.00,VWS V12.08,2014-07-25 12:33:00,
2014-07-25 08:42:00,68.0,45.9,30.03,NW,311,0.0,0.0,45,0.00,,,0.00,VWS V12.08,2014-07-25 12:42:00,
2014-07-25 08:47:00,68.2,44.9,30.03,NW,311,0.0,0.0,43,0.00,,,0.00,VWS V12.08,2014-07-25 12:47:00,
2014-07-25 08:52:00,68.4,45.0,30.03,NNW,341,0.0,0.0,43,0.00,,,0.00,VWS V12.08,2014-07-25 12:52:00,
2014-07-25 09:00:00,69.4,45.4,30.03,NW,316,0.0,2.2,42,0.00,,,0.00,VWS V12.08,2014-07-25 13:00:00,
2014-07-25 09:02:00,69.1,45.7,30.03,NNW,341,0.0,0.0,43,0.00,,,0.00,VWS V12.08,2014-07-25 13:02:00,
2014-07-25 09:17:00,70.5,41.6,30.06,NW,316,0.0,0.0,35,0.00,,,0.00,VWS V12.08,2014-07-25 13:17:00,
2014-07-25 09:22:00,71.1,40.5,30.06,NW,316,0.0,0.0,33,0.00,,,0.00,VWS V12.08,2014-07-25 13:22:00,
2014-07-25 09:32:00,71.6,35.9,30.06,NE,53,0.0,0.0,27,0.00,,,0.00,VWS V12.08,2014-07-25 13:32:00,
2014-07-25 09:37:00,72.0,34.2,30.06,SW,219,0.0,0.0,25,0.00,,,0.00,VWS V12.08,2014-07-25 13:37:00,
2014-07-25 09:47:00,72.5,31.5,30.06,NW,318,0.0,0.0,22,0.00,,,0.00,VWS V12.08,2014-07-25 13:47:00,
2014-07-25 09:52:00,72.9,24.1,30.06,North,7,0.0,0.0,16,0.00,,,0.00,VWS V12.08,2014-07-25 13:52:00,
2014-07-25 09:57:00,73.0,32.0,30.06,NE,42,0.0,0.0,22,0.00,,,0.00,VWS V12.08,2014-07-25 13:57:00,
2014-07-25 10:00:00,73.4,27.4,30.06,NW,316,0.0,0.0,18,0.00,,,0.00,VWS V12.08,2014-07-25 14:00:00,
2014-07-25 10:15:00,73.9,20.0,30.06,NW,317,0.0,0.0,13,0.00,,,0.00,VWS V12.08,2014-07-25 14:15:00,
2014-07-25 10:22:00,74.3,16.4,30.06,NE,41,0.0,0.0,11,0.00,,,0.00,VWS V12.08,2014-07-25 14:22:00,
2014-07-25 10:32:00,74.5,16.6,30.06,NW,318,0.0,0.0,11,0.00,,,0.00,VWS V12.08,2014-07-25 14:32:00,
2014-07-25 10:37:00,74.5,9.4,30.06,NNW,339,0.0,2.7,8,0.00,,,0.00,VWS V12.08,2014-07-25 14:37:00,
2014-07-25 10:47:00,74.7,16.7,30.06,NNW,340,0.0,2.7,11,0.00,,,0.00,VWS V12.08,2014-07-25 14:47:00,
2014-07-25 10:52:00,74.8,9.6,30.06,NNW,345,0.0,0.0,8,0.00,,,0.00,VWS V12.08,2014-07-25 14:52:00,
2014-07-25 11:00:00,75.2,9.9,30.06,NNW,329,0.0,0.0,8,0.00,,,0.00,VWS V12.08,2014-07-25 15:00:00,
2014-07-25 11:02:00,74.8,9.6,30.06,North,353,0.0,0.0,8,0.00,,,0.00,VWS V12.08,2014-07-25 15:02:00,
2014-07-25 11:15:00,75.4,-0.2,30.06,North,0,0.0,0.0,5,0.00,,,0.00,VWS V12.08,2014-07-25 15:15:00,
2014-07-25 11:23:00,75.0,9.8,30.06,WNW,299,0.0,0.0,8,0.00,,,0.00,VWS V12.08,2014-07-25 15:23:00,
2014-07-25 11:32:00,74.1,16.3,30.06,NNW,348,0.0,4.5,11,0.00,,,0.00,VWS V12.08,2014-07-25 15:32:00,
2014-07-25 11:38:00,73.9,16.1,30.06,WSW,253,2.2,3.6,11,0.00,,,0.00,VWS V12.08,2014-07-25 15:38:00,
2014-07-25 11:47:00,73.9,9.0,30.06,SW,225,0.0,3.6,8,0.00,,,0.00,VWS V12.08,2014-07-25 15:47:00,
2014-07-25 11:53:00,74.3,9.2,30.06,NNW,332,0.0,2.2,8,0.00,,,0.00,VWS V12.08,2014-07-25 15:53:00,
2014-07-25 12:00:00,75.6,-0.1,30.06,NW,323,0.0,2.2,5,0.00,,,0.00,VWS V12.08,2014-07-25 16:00:00,
2014-07-25 12:03:00,75.0,9.8,30.06,NNW,337,0.0,2.2,8,0.00,,,0.00,VWS V12.08,2014-07-25 16:03:00,
2014-07-25 12:18:00,75.7,0.1,30.06,NE,46,0.0,0.0,5,0.00,,,0.00,VWS V12.08,2014-07-25 16:18:00,
2014-07-25 12:23:00,75.7,0.1,30.06,NNE,15,0.0,0.0,5,0.00,,,0.00,VWS V12.08,2014-07-25 16:23:00,
2014-07-25 12:33:00,75.9,0.2,30.06,East,82,0.0,0.0,5,0.00,,,0.00,VWS V12.08,2014-07-25 16:33:00,
2014-07-25 12:38:00,75.9,0.2,30.06,ENE,73,0.0,0.0,5,0.00,,,0.00,VWS V12.08,2014-07-25 16:38:00,
2014-07-25 12:48:00,76.6,0.7,30.06,NW,315,0.0,0.0,5,0.00,,,0.00,VWS V12.08,2014-07-25 16:48:00,
2014-07-25 12:53:00,76.6,0.7,30.06,NNW,327,0.0,0.0,5,0.00,,,0.00,VWS V12.08,2014-07-25 16:53:00,
2014-07-25 13:00:00,76.5,-10.0,30.06,NNE,24,0.0,2.7,3,0.00,,,0.00,VWS V12.08,2014-07-25 17:00:00,
2014-07-25 13:03:00,76.6,-9.9,30.06,NW,325,0.0,2.7,3,0.00,,,0.00,VWS V12.08,2014-07-25 17:03:00,
2014-07-25 13:15:00,76.6,-9.9,30.06,NW,311,0.0,0.0,3,0.00,,,0.00,VWS V12.08,2014-07-25 17:15:00,
2014-07-25 13:23:00,76.6,-9.9,30.06,SW,227,0.0,2.7,3,0.00,,,0.00,VWS V12.08,2014-07-25 17:23:00,
2014-07-25 13:33:00,77.0,-9.7,30.06,WNW,286,0.0,0.0,3,0.00,,,0.00,VWS V12.08,2014-07-25 17:33:00,
2014-07-25 13:38:00,76.8,-9.8,30.06,South,186,0.0,2.2,3,0.00,,,0.00,VWS V12.08,2014-07-25 17:38:00,
2014-07-25 13:48:00,76.8,-9.8,30.06,NNW,344,0.0,2.2,3,0.00,,,0.00,VWS V12.08,2014-07-25 17:48:00,
2014-07-25 13:53:00,76.5,-10.0,30.06,NNE,29,0.0,2.7,3,0.00,,,0.00,VWS V12.08,2014-07-25 17:53:00,
2014-07-25 14:00:00,77.0,-9.7,30.06,NW,324,0.0,2.7,3,0.00,,,0.00,VWS V12.08,2014-07-25 18:00:00,
2014-07-25 14:03:00,76.5,-10.0,30.06,NW,324,0.0,2.7,3,0.00,,,0.00,VWS V12.08,2014-07-25 18:03:00,
2014-07-25 14:16:00,76.6,-9.9,30.06,North,350,0.0,0.0,3,0.00,,,0.00,VWS V12.08,2014-07-25 18:16:00,
2014-07-25 14:23:00,76.6,-9.9,30.06,North,353,0.0,0.0,3,0.00,,,0.00,VWS V12.08,2014-07-25 18:23:00,
2014-07-25 14:33:00,77.2,-9.6,30.06,SW,220,0.0,3.1,3,0.00,,,0.00,VWS V12.08,2014-07-25 18:33:00,
2014-07-25 14:38:00,77.2,-9.6,30.06,NNW,339,0.0,3.1,3,0.00,,,0.00,VWS V12.08,2014-07-25 18:38:00,
2014-07-25 14:48:00,76.6,-9.9,30.06,NNE,32,0.0,3.1,3,0.00,,,0.00,VWS V12.08,2014-07-25 18:48:00,
2014-07-25 14:53:00,76.5,-10.0,30.06,North,353,0.0,0.0,3,0.00,,,0.00,VWS V12.08,2014-07-25 18:53:00,
2014-07-25 15:00:00,76.8,-9.8,30.06,North,350,0.0,0.0,3,0.00,,,0.00,VWS V12.08,2014-07-25 19:00:00,
2014-07-25 15:03:00,76.6,-9.9,30.06,NE,50,0.0,0.0,3,0.00,,,0.00,VWS V12.08,2014-07-25 19:03:00,
2014-07-25 15:16:00,77.2,-9.6,30.06,SW,218,0.0,0.0,3,0.00,,,0.00,VWS V12.08,2014-07-25 19:16:00,
2014-07-25 15:23:00,77.0,-9.7,30.06,NNW,346,0.0,0.0,3,0.00,,,0.00,VWS V12.08,2014-07-25 19:23:00,
2014-07-25 15:33:00,78.3,-8.8,30.06,WNW,284,0.0,0.0,3,0.00,,,0.00,VWS V12.08,2014-07-25 19:33:00,
2014-07-25 15:42:00,77.9,-9.1,30.06,NNE,14,0.0,0.0,3,0.00,,,0.00,VWS V12.08,2014-07-25 19:42:00,
2014-07-25 15:47:00,77.9,-9.1,30.06,NW,321,0.0,0.0,3,0.00,,,0.00,VWS V12.08,2014-07-25 19:47:00,
2014-07-25 15:52:00,78.1,-9.0,30.06,NNW,338,0.0,0.0,3,0.00,,,0.00,VWS V12.08,2014-07-25 19:52:00,
2014-07-25 16:00:00,78.6,-8.6,30.06,North,353,0.0,0.0,3,0.00,,,0.00,VWS V12.08,2014-07-25 20:00:00,
2014-07-25 16:02:00,78.1,-9.0,30.06,NW,326,0.0,0.0,3,0.00,,,0.00,VWS V12.08,2014-07-25 20:02:00,
2014-07-25 16:14:00,79.0,-16.5,30.06,WNW,301,0.0,0.0,2,0.00,,,0.00,VWS V12.08,2014-07-25 20:14:00,
2014-07-25 16:23:00,78.1,-9.0,30.06,WNW,303,0.0,0.0,3,0.00,,,0.00,VWS V12.08,2014-07-25 20:23:00,
2014-07-25 16:32:00,78.1,-9.0,30.06,NW,305,0.0,0.0,3,0.00,,,0.00,VWS V12.08,2014-07-25 20:32:00,
2014-07-25 16:37:00,78.1,-9.0,30.06,NW,305,0.0,0.0,3,0.00,,,0.00,VWS V12.08,2014-07-25 20:37:00,
2014-07-25 16:47:00,78.1,-9.0,30.06,NW,305,0.0,0.0,3,0.00,,,0.00,VWS V12.08,2014-07-25 20:47:00,
2014-07-25 16:52:00,79.2,-16.3,30.06,NW,305,0.0,0.0,2,0.00,,,0.00,VWS V12.08,2014-07-25 20:52:00,
2014-07-25 16:57:00,79.5,-16.1,30.06,SSE,151,0.0,0.0,2,0.00,,,0.00,VWS V12.08,2014-07-25 20:57:00,
2014-07-25 17:00:00,77.9,-9.1,30.06,ESE,103,0.0,0.0,3,0.00,,,0.00,VWS V12.08,2014-07-25 21:00:00,
2014-07-25 17:02:00,78.4,-8.7,30.06,ESE,105,0.0,0.0,3,0.00,,,0.00,VWS V12.08,2014-07-25 21:02:00,
2014-07-25 17:15:00,77.4,-9.4,30.06,SSE,153,0.0,0.0,3,0.00,,,0.00,VWS V12.08,2014-07-25 21:15:00,
2014-07-25 17:22:00,76.8,-9.8,30.06,South,177,0.0,4.0,3,0.00,,,0.00,VWS V12.08,2014-07-25 21:22:00,
2014-07-25 17:32:00,75.9,-10.4,30.06,SSE,153,0.0,3.1,3,0.00,,,0.00,VWS V12.08,2014-07-25 21:32:00,
2014-07-25 17:37:00,75.7,-10.5,30.06,SE,131,0.0,3.1,3,0.00,,,0.00,VWS V12.08,2014-07-25 21:37:00,